Year,Month,Day,Hour,Minute,Value (Times are PST for temperature in C)
2015,06,27,00,00,18.30
2015,06,27,00,01,18.30
2015,06,27,00,02,18.30
2015,06,27,00,03,18.30
2015,06,27,00,04,18.30
2015,06,27,00,05,18.20
2015,06,27,00,06,18.20
2015,06,27,00,07,18.10
2015,06,27,00,08,18.10
2015,06,27,00,09,18.10
2015,06,27,00,10,18.10
2015,06,27,00,11,18.20
2015,06,27,00,12,18.20
2015,06,27,00,13,18.20
2015,06,27,00,14,18.20
2015,06,27,00,15,18.20
2015,06,27,00,16,18.20
2015,06,27,00,17,18.20
2015,06,27,00,18,18.20
2015,06,27,00,19,18.20
2015,06,27,00,20,18.20
2015,06,27,00,21,18.20
2015,06,27,00,22,18.20
2015,06,27,00,23,18.20
2015,06,27,00,24,18.10
2015,06,27,00,25,18.10
2015,06,27,00,26,18.10
2015,06,27,00,27,18.10
2015,06,27,00,28,18.10
2015,06,27,00,29,18.10
2015,06,27,00,30,18.10
2015,06,27,00,31,18.00
2015,06,27,00,32,18.00
2015,06,27,00,33,18.00
2015,06,27,00,34,18.00
2015,06,27,00,35,18.00
2015,06,27,00,36,17.90
2015,06,27,00,37,17.90
2015,06,27,00,38,17.90
2015,06,27,00,39,17.90
2015,06,27,00,40,17.90
2015,06,27,00,41,17.90
2015,06,27,00,42,17.90
2015,06,27,00,43,17.90
2015,06,27,00,44,17.90
2015,06,27,00,45,17.90
2015,06,27,00,46,17.80
2015,06,27,00,47,17.80
2015,06,27,00,48,17.80
2015,06,27,00,49,17.80
2015,06,27,00,50,17.80
2015,06,27,00,51,17.80
2015,06,27,00,52,17.90
2015,06,27,00,53,17.90
2015,06,27,00,54,17.90
2015,06,27,00,55,17.90
2015,06,27,00,56,17.90
2015,06,27,00,57,17.90
2015,06,27,00,58,17.90
2015,06,27,00,59,17.90
2015,06,27,01,00,17.90
2015,06,27,01,01,17.90
2015,06,27,01,02,17.90
2015,06,27,01,03,17.90
2015,06,27,01,04,17.90
2015,06,27,01,05,17.90
2015,06,27,01,06,17.80
2015,06,27,01,07,17.80
2015,06,27,01,08,17.80
2015,06,27,01,09,17.80
2015,06,27,01,10,17.80
2015,06,27,01,11,17.70
2015,06,27,01,12,17.70
2015,06,27,01,13,17.70
2015,06,27,01,14,17.70
2015,06,27,01,15,17.70
2015,06,27,01,16,17.70
2015,06,27,01,17,17.70
2015,06,27,01,18,17.70
2015,06,27,01,19,17.80
2015,06,27,01,20,17.80
2015,06,27,01,21,17.80
2015,06,27,01,22,17.80
2015,06,27,01,23,17.80
2015,06,27,01,24,17.80
2015,06,27,01,25,17.80
2015,06,27,01,26,17.80
2015,06,27,01,27,17.80
2015,06,27,01,28,17.80
2015,06,27,01,29,17.80
2015,06,27,01,30,17.80
2015,06,27,01,31,17.80
2015,06,27,01,32,17.70
2015,06,27,01,33,17.70
2015,06,27,01,34,17.70
2015,06,27,01,35,17.70
2015,06,27,01,36,17.60
2015,06,27,01,37,17.60
2015,06,27,01,38,17.60
2015,06,27,01,39,17.60
2015,06,27,01,40,17.60
2015,06,27,01,41,17.70
2015,06,27,01,42,17.70
2015,06,27,01,43,17.60
2015,06,27,01,44,17.60
2015,06,27,01,45,17.60
2015,06,27,01,46,17.60
2015,06,27,01,47,17.60
2015,06,27,01,48,17.60
2015,06,27,01,49,17.60
2015,06,27,01,50,17.50
2015,06,27,01,51,17.50
2015,06,27,01,52,17.50
2015,06,27,01,53,17.50
2015,06,27,01,54,17.40
2015,06,27,01,55,17.40
2015,06,27,01,56,17.40
2015,06,27,01,57,17.40
2015,06,27,01,58,17.40
2015,06,27,01,59,17.40
2015,06,27,02,00,17.40
2015,06,27,02,01,17.40
2015,06,27,02,02,17.40
2015,06,27,02,03,17.30
2015,06,27,02,04,17.30
2015,06,27,02,05,17.30
2015,06,27,02,06,17.30
2015,06,27,02,07,17.30
2015,06,27,02,08,17.30
2015,06,27,02,09,17.30
2015,06,27,02,10,17.20
2015,06,27,02,11,17.20
2015,06,27,02,12,17.20
2015,06,27,02,13,17.20
2015,06,27,02,14,17.30
2015,06,27,02,15,17.30
2015,06,27,02,16,17.30
2015,06,27,02,17,17.40
2015,06,27,02,18,17.40
2015,06,27,02,19,17.40
2015,06,27,02,20,17.40
2015,06,27,02,21,17.40
2015,06,27,02,22,17.40
2015,06,27,02,23,17.40
2015,06,27,02,24,17.40
2015,06,27,02,25,17.40
2015,06,27,02,26,17.40
2015,06,27,02,27,17.40
2015,06,27,02,28,17.30
2015,06,27,02,29,17.30
2015,06,27,02,30,17.30
2015,06,27,02,31,17.30
2015,06,27,02,32,17.20
2015,06,27,02,33,17.30
2015,06,27,02,34,17.30
2015,06,27,02,35,17.40
2015,06,27,02,36,17.50
2015,06,27,02,37,17.50
2015,06,27,02,38,17.60
2015,06,27,02,39,17.60
2015,06,27,02,40,17.70
2015,06,27,02,41,17.70
2015,06,27,02,42,17.70
2015,06,27,02,43,17.70
2015,06,27,02,44,17.70
2015,06,27,02,45,17.70
2015,06,27,02,46,17.70
2015,06,27,02,47,17.60
2015,06,27,02,48,17.60
2015,06,27,02,49,17.50
2015,06,27,02,50,17.40
2015,06,27,02,51,17.40
2015,06,27,02,52,17.40
2015,06,27,02,53,17.30
2015,06,27,02,54,17.30
2015,06,27,02,55,17.30
2015,06,27,02,56,17.30
2015,06,27,02,57,17.30
2015,06,27,02,58,17.30
2015,06,27,02,59,17.30
2015,06,27,03,00,17.30
2015,06,27,03,01,17.20
2015,06,27,03,02,17.20
2015,06,27,03,03,17.20
2015,06,27,03,04,17.20
2015,06,27,03,05,17.20
2015,06,27,03,06,17.20
2015,06,27,03,07,17.20
2015,06,27,03,08,17.20
2015,06,27,03,09,17.20
2015,06,27,03,10,17.20
2015,06,27,03,11,17.20
2015,06,27,03,12,17.20
2015,06,27,03,13,17.20
2015,06,27,03,14,17.20
2015,06,27,03,15,17.20
2015,06,27,03,16,17.20
2015,06,27,03,17,17.20
2015,06,27,03,18,17.20
2015,06,27,03,19,17.20
2015,06,27,03,20,17.20
2015,06,27,03,21,17.20
2015,06,27,03,22,17.20
2015,06,27,03,23,17.20
2015,06,27,03,24,17.20
2015,06,27,03,25,17.20
2015,06,27,03,26,17.10
2015,06,27,03,27,17.10
2015,06,27,03,28,17.10
2015,06,27,03,29,17.20
2015,06,27,03,30,17.20
2015,06,27,03,31,17.20
2015,06,27,03,32,17.20
2015,06,27,03,33,17.20
2015,06,27,03,34,17.20
2015,06,27,03,35,17.20
2015,06,27,03,36,17.20
2015,06,27,03,37,17.20
2015,06,27,03,38,17.10
2015,06,27,03,39,17.10
2015,06,27,03,40,17.10
2015,06,27,03,41,17.10
2015,06,27,03,42,17.00
2015,06,27,03,43,17.00
2015,06,27,03,44,17.00
2015,06,27,03,45,17.00
2015,06,27,03,46,17.00
2015,06,27,03,47,16.90
2015,06,27,03,48,16.90
2015,06,27,03,49,16.90
2015,06,27,03,50,16.90
2015,06,27,03,51,16.90
2015,06,27,03,52,16.80
2015,06,27,03,53,16.80
2015,06,27,03,54,16.80
2015,06,27,03,55,16.80
2015,06,27,03,56,16.80
2015,06,27,03,57,16.80
2015,06,27,03,58,16.80
2015,06,27,03,59,16.70
2015,06,27,04,00,16.70
2015,06,27,04,01,16.70
2015,06,27,04,02,16.70
2015,06,27,04,03,16.60
2015,06,27,04,04,16.60
2015,06,27,04,05,16.60
2015,06,27,04,06,16.60
2015,06,27,04,07,16.50
2015,06,27,04,08,16.50
2015,06,27,04,09,16.50
2015,06,27,04,10,16.40
2015,06,27,04,11,16.40
2015,06,27,04,12,16.40
2015,06,27,04,13,16.40
2015,06,27,04,14,16.30
2015,06,27,04,15,16.30
2015,06,27,04,16,16.30
2015,06,27,04,17,16.30
2015,06,27,04,18,16.30
2015,06,27,04,19,16.30
2015,06,27,04,20,16.30
2015,06,27,04,21,16.30
2015,06,27,04,22,16.30
2015,06,27,04,23,16.30
2015,06,27,04,24,16.30
2015,06,27,04,25,16.30
2015,06,27,04,26,16.30
2015,06,27,04,27,16.30
2015,06,27,04,28,16.30
2015,06,27,04,29,16.20
2015,06,27,04,30,16.20
2015,06,27,04,31,16.20
2015,06,27,04,32,16.20
2015,06,27,04,33,16.20
2015,06,27,04,34,16.20
2015,06,27,04,35,16.20
2015,06,27,04,36,16.20
2015,06,27,04,37,16.20
2015,06,27,04,38,16.20
2015,06,27,04,39,16.10
2015,06,27,04,40,16.10
2015,06,27,04,41,16.10
2015,06,27,04,42,16.10
2015,06,27,04,43,16.10
2015,06,27,04,44,16.10
2015,06,27,04,45,16.10
2015,06,27,04,46,16.10
2015,06,27,04,47,16.10
2015,06,27,04,48,16.10
2015,06,27,04,49,16.10
2015,06,27,04,50,16.10
2015,06,27,04,51,16.10
2015,06,27,04,52,16.10
2015,06,27,04,53,16.10
2015,06,27,04,54,16.00
2015,06,27,04,55,16.00
2015,06,27,04,56,16.00
2015,06,27,04,57,16.00
2015,06,27,04,58,15.90
2015,06,27,04,59,15.90
2015,06,27,05,00,15.90
2015,06,27,05,01,15.90
2015,06,27,05,02,15.80
2015,06,27,05,03,15.80
2015,06,27,05,04,15.80
2015,06,27,05,05,15.80
2015,06,27,05,06,15.80
2015,06,27,05,07,15.80
2015,06,27,05,08,15.80
2015,06,27,05,09,15.80
2015,06,27,05,10,15.80
2015,06,27,05,11,15.80
2015,06,27,05,12,15.80
2015,06,27,05,13,15.80
2015,06,27,05,14,15.70
2015,06,27,05,15,15.70
2015,06,27,05,16,15.70
2015,06,27,05,17,15.70
2015,06,27,05,18,15.70
2015,06,27,05,19,15.80
2015,06,27,05,20,15.80
2015,06,27,05,21,15.80
2015,06,27,05,22,15.80
2015,06,27,05,23,15.80
2015,06,27,05,24,15.80
2015,06,27,05,25,15.80
2015,06,27,05,26,15.80
2015,06,27,05,27,15.80
2015,06,27,05,28,15.80
2015,06,27,05,29,15.80
2015,06,27,05,30,15.80
2015,06,27,05,31,15.80
2015,06,27,05,32,15.80
2015,06,27,05,33,15.80
2015,06,27,05,34,15.80
2015,06,27,05,35,15.80
2015,06,27,05,36,15.70
2015,06,27,05,37,15.70
2015,06,27,05,38,15.70
2015,06,27,05,39,15.70
2015,06,27,05,40,15.70
2015,06,27,05,41,15.60
2015,06,27,05,42,15.60
2015,06,27,05,43,15.60
2015,06,27,05,44,15.60
2015,06,27,05,45,15.60
2015,06,27,05,46,15.60
2015,06,27,05,47,15.60
2015,06,27,05,48,15.60
2015,06,27,05,49,15.60
2015,06,27,05,50,15.60
2015,06,27,05,51,15.60
2015,06,27,05,52,15.60
2015,06,27,05,53,15.60
2015,06,27,05,54,15.60
2015,06,27,05,55,15.60
2015,06,27,05,56,15.60
2015,06,27,05,57,15.60
2015,06,27,05,58,15.60
2015,06,27,05,59,15.70
2015,06,27,06,00,15.70
2015,06,27,06,01,15.70
2015,06,27,06,02,15.70
2015,06,27,06,03,15.70
2015,06,27,06,04,15.70
2015,06,27,06,05,15.70
2015,06,27,06,06,15.70
2015,06,27,06,07,15.70
2015,06,27,06,08,15.70
2015,06,27,06,09,15.70
2015,06,27,06,10,15.80
2015,06,27,06,11,15.80
2015,06,27,06,12,15.80
2015,06,27,06,13,15.90
2015,06,27,06,14,15.90
2015,06,27,06,15,15.90
2015,06,27,06,16,15.90
2015,06,27,06,17,15.90
2015,06,27,06,18,16.00
2015,06,27,06,19,16.00
2015,06,27,06,20,16.00
2015,06,27,06,21,16.10
2015,06,27,06,22,16.10
2015,06,27,06,23,16.20
2015,06,27,06,24,16.20
2015,06,27,06,25,16.20
2015,06,27,06,26,16.30
2015,06,27,06,27,16.30
2015,06,27,06,28,16.30
2015,06,27,06,29,16.30
2015,06,27,06,30,16.40
2015,06,27,06,31,16.40
2015,06,27,06,32,16.40
2015,06,27,06,33,16.50
2015,06,27,06,34,16.60
2015,06,27,06,35,16.60
2015,06,27,06,36,16.70
2015,06,27,06,37,16.70
2015,06,27,06,38,16.70
2015,06,27,06,39,16.80
2015,06,27,06,40,16.80
2015,06,27,06,41,16.80
2015,06,27,06,42,16.90
2015,06,27,06,43,16.90
2015,06,27,06,44,16.90
2015,06,27,06,45,17.00
2015,06,27,06,46,17.00
2015,06,27,06,47,17.10
2015,06,27,06,48,17.20
2015,06,27,06,49,17.30
2015,06,27,06,50,17.30
2015,06,27,06,51,17.40
2015,06,27,06,52,17.40
2015,06,27,06,53,17.50
2015,06,27,06,54,17.60
2015,06,27,06,55,17.60
2015,06,27,06,56,17.80
2015,06,27,06,57,17.90
2015,06,27,06,58,18.00
2015,06,27,06,59,18.10
2015,06,27,07,00,18.20
2015,06,27,07,01,18.30
2015,06,27,07,02,18.40
2015,06,27,07,03,18.60
2015,06,27,07,04,18.80
2015,06,27,07,05,19.00
2015,06,27,07,06,19.20
2015,06,27,07,07,19.40
2015,06,27,07,08,19.60
2015,06,27,07,09,19.70
2015,06,27,07,10,19.90
2015,06,27,07,11,20.10
2015,06,27,07,12,20.30
2015,06,27,07,13,20.40
2015,06,27,07,14,20.60
2015,06,27,07,15,20.80
2015,06,27,07,16,20.90
2015,06,27,07,17,21.10
2015,06,27,07,18,21.20
2015,06,27,07,19,21.30
2015,06,27,07,20,21.40
2015,06,27,07,21,21.50
2015,06,27,07,22,21.50
2015,06,27,07,23,21.60
2015,06,27,07,24,21.60
2015,06,27,07,25,21.70
2015,06,27,07,26,21.70
2015,06,27,07,27,21.80
2015,06,27,07,28,21.80
2015,06,27,07,29,21.90
2015,06,27,07,30,21.90
2015,06,27,07,31,22.00
2015,06,27,07,32,22.00
2015,06,27,07,33,22.10
2015,06,27,07,34,22.20
2015,06,27,07,35,22.20
2015,06,27,07,36,22.20
2015,06,27,07,37,22.20
2015,06,27,07,38,22.30
2015,06,27,07,39,22.30
2015,06,27,07,40,22.40
2015,06,27,07,41,22.50
2015,06,27,07,42,22.60
2015,06,27,07,43,22.70
2015,06,27,07,44,22.70
2015,06,27,07,45,22.80
2015,06,27,07,46,22.90
2015,06,27,07,47,23.00
2015,06,27,07,48,23.10
2015,06,27,07,49,23.20
2015,06,27,07,50,23.30
2015,06,27,07,51,23.30
2015,06,27,07,52,23.30
2015,06,27,07,53,23.30
2015,06,27,07,54,23.30
2015,06,27,07,55,23.30
2015,06,27,07,56,23.30
2015,06,27,07,57,23.30
2015,06,27,07,58,23.40
2015,06,27,07,59,23.50
2015,06,27,08,00,23.60
2015,06,27,08,01,23.80
2015,06,27,08,02,23.80
2015,06,27,08,03,23.90
2015,06,27,08,04,24.00
2015,06,27,08,05,24.10
2015,06,27,08,06,24.20
2015,06,27,08,07,24.30
2015,06,27,08,08,24.30
2015,06,27,08,09,24.40
2015,06,27,08,10,24.50
2015,06,27,08,11,24.60
2015,06,27,08,12,24.70
2015,06,27,08,13,24.70
2015,06,27,08,14,24.80
2015,06,27,08,15,24.90
2015,06,27,08,16,24.90
2015,06,27,08,17,24.90
2015,06,27,08,18,25.00
2015,06,27,08,19,25.10
2015,06,27,08,20,25.10
2015,06,27,08,21,25.10
2015,06,27,08,22,25.20
2015,06,27,08,23,25.20
2015,06,27,08,24,25.20
2015,06,27,08,25,25.20
2015,06,27,08,26,25.20
2015,06,27,08,27,25.20
2015,06,27,08,28,25.20
2015,06,27,08,29,25.10
2015,06,27,08,30,25.00
2015,06,27,08,31,25.00
2015,06,27,08,32,25.00
2015,06,27,08,33,25.10
2015,06,27,08,34,25.10
2015,06,27,08,35,25.10
2015,06,27,08,36,25.20
2015,06,27,08,37,25.30
2015,06,27,08,38,25.30
2015,06,27,08,39,25.30
2015,06,27,08,40,25.30
2015,06,27,08,41,25.40
2015,06,27,08,42,25.40
2015,06,27,08,43,25.40
2015,06,27,08,44,25.40
2015,06,27,08,45,25.40
2015,06,27,08,46,25.40
2015,06,27,08,47,25.50
2015,06,27,08,48,25.50
2015,06,27,08,49,25.60
2015,06,27,08,50,25.60
2015,06,27,08,51,25.50
2015,06,27,08,52,25.50
2015,06,27,08,53,25.60
2015,06,27,08,54,25.60
2015,06,27,08,55,25.60
2015,06,27,08,56,25.60
2015,06,27,08,57,25.60
2015,06,27,08,58,25.60
2015,06,27,08,59,25.60
2015,06,27,09,00,25.60
2015,06,27,09,01,25.60
2015,06,27,09,02,25.60
2015,06,27,09,03,25.50
2015,06,27,09,04,25.50
2015,06,27,09,05,25.60
2015,06,27,09,06,25.70
2015,06,27,09,07,25.90
2015,06,27,09,08,26.00
2015,06,27,09,09,26.10
2015,06,27,09,10,26.10
2015,06,27,09,11,26.10
2015,06,27,09,12,26.10
2015,06,27,09,13,26.10
2015,06,27,09,14,26.20
2015,06,27,09,15,26.30
2015,06,27,09,16,26.40
2015,06,27,09,17,26.50
2015,06,27,09,18,26.60
2015,06,27,09,19,26.70
2015,06,27,09,20,26.80
2015,06,27,09,21,27.00
2015,06,27,09,22,27.10
2015,06,27,09,23,27.20
2015,06,27,09,24,27.30
2015,06,27,09,25,27.40
2015,06,27,09,26,27.40
2015,06,27,09,27,27.40
2015,06,27,09,28,27.30
2015,06,27,09,29,27.40
2015,06,27,09,30,27.30
2015,06,27,09,31,27.30
2015,06,27,09,32,27.40
2015,06,27,09,33,27.30
2015,06,27,09,34,27.30
2015,06,27,09,35,27.20
2015,06,27,09,36,27.20
2015,06,27,09,37,27.10
2015,06,27,09,38,27.10
2015,06,27,09,39,27.00
2015,06,27,09,40,26.90
2015,06,27,09,41,26.80
2015,06,27,09,42,26.70
2015,06,27,09,43,26.60
2015,06,27,09,44,26.60
2015,06,27,09,45,26.50
2015,06,27,09,46,26.50
2015,06,27,09,47,26.40
2015,06,27,09,48,26.40
2015,06,27,09,49,26.40
2015,06,27,09,50,26.40
2015,06,27,09,51,26.40
2015,06,27,09,52,26.40
2015,06,27,09,53,26.40
2015,06,27,09,54,26.40
2015,06,27,09,55,26.40
2015,06,27,09,56,26.40
2015,06,27,09,57,26.30
2015,06,27,09,58,26.30
2015,06,27,09,59,26.30
2015,06,27,10,00,26.30
2015,06,27,10,01,26.30
2015,06,27,10,02,26.30
2015,06,27,10,03,26.30
2015,06,27,10,04,26.30
2015,06,27,10,05,26.20
2015,06,27,10,06,26.20
2015,06,27,10,07,26.20
2015,06,27,10,08,26.20
2015,06,27,10,09,26.20
2015,06,27,10,10,26.30
2015,06,27,10,11,26.30
2015,06,27,10,12,26.40
2015,06,27,10,13,26.30
2015,06,27,10,14,26.30
2015,06,27,10,15,26.30
2015,06,27,10,16,26.40
2015,06,27,10,17,26.40
2015,06,27,10,18,26.40
2015,06,27,10,19,26.40
2015,06,27,10,20,26.30
2015,06,27,10,21,26.30
2015,06,27,10,22,26.20
2015,06,27,10,23,26.20
2015,06,27,10,24,26.20
2015,06,27,10,25,26.20
2015,06,27,10,26,26.10
2015,06,27,10,27,26.10
2015,06,27,10,28,26.00
2015,06,27,10,29,25.90
2015,06,27,10,30,25.90
2015,06,27,10,31,25.90
2015,06,27,10,32,26.00
2015,06,27,10,33,26.20
2015,06,27,10,34,26.30
2015,06,27,10,35,26.30
2015,06,27,10,36,26.20
2015,06,27,10,37,26.00
2015,06,27,10,38,26.00
2015,06,27,10,39,25.90
2015,06,27,10,40,26.00
2015,06,27,10,41,26.10
2015,06,27,10,42,26.10
2015,06,27,10,43,26.20
2015,06,27,10,44,26.30
2015,06,27,10,45,26.50
2015,06,27,10,46,26.70
2015,06,27,10,47,26.80
2015,06,27,10,48,27.00
2015,06,27,10,49,27.00
2015,06,27,10,50,27.10
2015,06,27,10,51,27.10
2015,06,27,10,52,27.20
2015,06,27,10,53,27.40
2015,06,27,10,54,27.50
2015,06,27,10,55,27.50
2015,06,27,10,56,27.50
2015,06,27,10,57,27.60
2015,06,27,10,58,27.70
2015,06,27,10,59,27.70
2015,06,27,11,00,27.70
2015,06,27,11,01,27.70
2015,06,27,11,02,27.80
2015,06,27,11,03,27.90
2015,06,27,11,04,28.00
2015,06,27,11,05,28.20
2015,06,27,11,06,28.30
2015,06,27,11,07,28.40
2015,06,27,11,08,28.60
2015,06,27,11,09,28.70
2015,06,27,11,10,28.80
2015,06,27,11,11,28.80
2015,06,27,11,12,28.70
2015,06,27,11,13,28.60
2015,06,27,11,14,28.60
2015,06,27,11,15,28.50
2015,06,27,11,16,28.50
2015,06,27,11,17,28.60
2015,06,27,11,18,28.60
2015,06,27,11,19,28.70
2015,06,27,11,20,28.70
2015,06,27,11,21,28.70
2015,06,27,11,22,28.70
2015,06,27,11,23,28.70
2015,06,27,11,24,28.70
2015,06,27,11,25,28.80
2015,06,27,11,26,29.00
2015,06,27,11,27,29.10
2015,06,27,11,28,29.10
2015,06,27,11,29,29.10
2015,06,27,11,30,29.10
2015,06,27,11,31,29.10
2015,06,27,11,32,29.20
2015,06,27,11,33,29.20
2015,06,27,11,34,29.30
2015,06,27,11,35,29.30
2015,06,27,11,36,29.30
2015,06,27,11,37,29.30
2015,06,27,11,38,29.30
2015,06,27,11,39,29.30
2015,06,27,11,40,29.20
2015,06,27,11,41,29.10
2015,06,27,11,42,28.90
2015,06,27,11,43,28.60
2015,06,27,11,44,28.40
2015,06,27,11,45,28.20
2015,06,27,11,46,28.20
2015,06,27,11,47,28.10
2015,06,27,11,48,28.00
2015,06,27,11,49,28.00
2015,06,27,11,50,28.00
2015,06,27,11,51,28.10
2015,06,27,11,52,28.30
2015,06,27,11,53,28.40
2015,06,27,11,54,28.50
2015,06,27,11,55,28.70
2015,06,27,11,56,28.80
2015,06,27,11,57,28.80
2015,06,27,11,58,28.90
2015,06,27,11,59,29.00
2015,06,27,12,00,29.00
2015,06,27,12,01,28.90
2015,06,27,12,02,28.90
2015,06,27,12,03,28.70
2015,06,27,12,04,28.60
2015,06,27,12,05,28.60
2015,06,27,12,06,28.60
2015,06,27,12,07,28.60
2015,06,27,12,08,28.70
2015,06,27,12,09,28.90
2015,06,27,12,10,29.10
2015,06,27,12,11,29.20
2015,06,27,12,12,29.20
2015,06,27,12,13,29.20
2015,06,27,12,14,29.20
2015,06,27,12,15,29.30
2015,06,27,12,16,29.40
2015,06,27,12,17,29.50
2015,06,27,12,18,29.70
2015,06,27,12,19,29.80
2015,06,27,12,20,29.80
2015,06,27,12,21,29.80
2015,06,27,12,22,29.70
2015,06,27,12,23,29.60
2015,06,27,12,24,29.70
2015,06,27,12,25,29.70
2015,06,27,12,26,29.70
2015,06,27,12,27,29.70
2015,06,27,12,28,29.70
2015,06,27,12,29,29.80
2015,06,27,12,30,29.70
2015,06,27,12,31,29.70
2015,06,27,12,32,29.60
2015,06,27,12,33,29.50
2015,06,27,12,34,29.40
2015,06,27,12,35,29.40
2015,06,27,12,36,29.40
2015,06,27,12,37,29.40
2015,06,27,12,38,29.40
2015,06,27,12,39,29.30
2015,06,27,12,40,29.30
2015,06,27,12,41,29.30
2015,06,27,12,42,29.40
2015,06,27,12,43,29.40
2015,06,27,12,44,29.50
2015,06,27,12,45,29.50
2015,06,27,12,46,29.50
2015,06,27,12,47,29.50
2015,06,27,12,48,29.60
2015,06,27,12,49,29.60
2015,06,27,12,50,29.70
2015,06,27,12,51,29.80
2015,06,27,12,52,29.90
2015,06,27,12,53,29.90
2015,06,27,12,54,29.90
2015,06,27,12,55,30.00
2015,06,27,12,56,30.10
2015,06,27,12,57,30.20
2015,06,27,12,58,30.20
2015,06,27,12,59,30.20
2015,06,27,13,00,30.10
2015,06,27,13,01,30.00
2015,06,27,13,02,29.90
2015,06,27,13,03,29.90
2015,06,27,13,04,29.80
2015,06,27,13,05,29.70
2015,06,27,13,06,29.60
2015,06,27,13,07,29.60
2015,06,27,13,08,29.60
2015,06,27,13,09,29.70
2015,06,27,13,10,29.70
2015,06,27,13,11,29.70
2015,06,27,13,12,29.80
2015,06,27,13,13,29.90
2015,06,27,13,14,30.00
2015,06,27,13,15,30.10
2015,06,27,13,16,30.20
2015,06,27,13,17,30.30
2015,06,27,13,18,30.30
2015,06,27,13,19,30.40
2015,06,27,13,20,30.40
2015,06,27,13,21,30.40
2015,06,27,13,22,30.40
2015,06,27,13,23,30.40
2015,06,27,13,24,30.30
2015,06,27,13,25,30.30
2015,06,27,13,26,30.30
2015,06,27,13,27,30.30
2015,06,27,13,28,30.40
2015,06,27,13,29,30.40
2015,06,27,13,30,30.40
2015,06,27,13,31,30.40
2015,06,27,13,32,30.50
2015,06,27,13,33,30.60
2015,06,27,13,34,30.60
2015,06,27,13,35,30.70
2015,06,27,13,36,30.60
2015,06,27,13,37,30.70
2015,06,27,13,38,30.70
2015,06,27,13,39,30.80
2015,06,27,13,40,30.80
2015,06,27,13,41,30.80
2015,06,27,13,42,30.80
2015,06,27,13,43,30.80
2015,06,27,13,44,30.90
2015,06,27,13,45,31.00
2015,06,27,13,46,31.10
2015,06,27,13,47,31.20
2015,06,27,13,48,31.20
2015,06,27,13,49,31.20
2015,06,27,13,50,31.10
2015,06,27,13,51,31.10
2015,06,27,13,52,31.00
2015,06,27,13,53,30.90
2015,06,27,13,54,31.00
2015,06,27,13,55,31.00
2015,06,27,13,56,31.00
2015,06,27,13,57,30.90
2015,06,27,13,58,30.90
2015,06,27,13,59,30.90
2015,06,27,14,00,30.90
2015,06,27,14,01,30.90
2015,06,27,14,02,30.90
2015,06,27,14,03,30.90
2015,06,27,14,04,30.90
2015,06,27,14,05,30.90
2015,06,27,14,06,30.90
2015,06,27,14,07,30.90
2015,06,27,14,08,30.90
2015,06,27,14,09,31.00
2015,06,27,14,10,31.10
2015,06,27,14,11,31.10
2015,06,27,14,12,31.20
2015,06,27,14,13,31.30
2015,06,27,14,14,31.30
2015,06,27,14,15,31.30
2015,06,27,14,16,31.30
2015,06,27,14,17,31.20
2015,06,27,14,18,31.00
2015,06,27,14,19,30.80
2015,06,27,14,20,30.70
2015,06,27,14,21,30.60
2015,06,27,14,22,30.60
2015,06,27,14,23,30.60
2015,06,27,14,24,30.60
2015,06,27,14,25,30.60
2015,06,27,14,26,30.60
2015,06,27,14,27,30.60
2015,06,27,14,28,30.60
2015,06,27,14,29,30.70
2015,06,27,14,30,30.70
2015,06,27,14,31,30.70
2015,06,27,14,32,30.70
2015,06,27,14,33,30.70
2015,06,27,14,34,30.70
2015,06,27,14,35,30.80
2015,06,27,14,36,30.80
2015,06,27,14,37,30.90
2015,06,27,14,38,30.90
2015,06,27,14,39,30.90
2015,06,27,14,40,30.90
2015,06,27,14,41,30.90
2015,06,27,14,42,30.90
2015,06,27,14,43,30.90
2015,06,27,14,44,31.00
2015,06,27,14,45,31.10
2015,06,27,14,46,31.10
2015,06,27,14,47,31.30
2015,06,27,14,48,31.40
2015,06,27,14,49,31.50
2015,06,27,14,50,31.50
2015,06,27,14,51,31.60
2015,06,27,14,52,31.60
2015,06,27,14,53,31.60
2015,06,27,14,54,31.60
2015,06,27,14,55,31.70
2015,06,27,14,56,31.70
2015,06,27,14,57,31.70
2015,06,27,14,58,31.90
2015,06,27,14,59,31.90
2015,06,27,15,00,31.90
2015,06,27,15,01,32.00
2015,06,27,15,02,31.90
2015,06,27,15,03,31.90
2015,06,27,15,04,31.90
2015,06,27,15,05,31.90
2015,06,27,15,06,31.90
2015,06,27,15,07,31.90
2015,06,27,15,08,31.90
2015,06,27,15,09,31.80
2015,06,27,15,10,31.80
2015,06,27,15,11,31.80
2015,06,27,15,12,31.80
2015,06,27,15,13,31.70
2015,06,27,15,14,31.60
2015,06,27,15,15,31.60
2015,06,27,15,16,31.60
2015,06,27,15,17,31.60
2015,06,27,15,18,31.60
2015,06,27,15,19,31.60
2015,06,27,15,20,31.60
2015,06,27,15,21,31.60
2015,06,27,15,22,31.60
2015,06,27,15,23,31.60
2015,06,27,15,24,31.70
2015,06,27,15,25,31.70
2015,06,27,15,26,31.70
2015,06,27,15,27,31.80
2015,06,27,15,28,31.90
2015,06,27,15,29,32.00
2015,06,27,15,30,32.00
2015,06,27,15,31,32.10
2015,06,27,15,32,32.10
2015,06,27,15,33,32.10
2015,06,27,15,34,32.10
2015,06,27,15,35,32.20
2015,06,27,15,36,32.20
2015,06,27,15,37,32.30
2015,06,27,15,38,32.30
2015,06,27,15,39,32.30
2015,06,27,15,40,32.30
2015,06,27,15,41,32.30
2015,06,27,15,42,32.30
2015,06,27,15,43,32.30
2015,06,27,15,44,32.20
2015,06,27,15,45,32.10
2015,06,27,15,46,32.00
2015,06,27,15,47,31.90
2015,06,27,15,48,31.90
2015,06,27,15,49,31.90
2015,06,27,15,50,31.90
2015,06,27,15,51,31.90
2015,06,27,15,52,31.90
2015,06,27,15,53,32.00
2015,06,27,15,54,31.90
2015,06,27,15,55,31.90
2015,06,27,15,56,32.00
2015,06,27,15,57,32.00
2015,06,27,15,58,32.10
2015,06,27,15,59,32.10
2015,06,27,16,00,32.20
2015,06,27,16,01,32.20
2015,06,27,16,02,32.30
2015,06,27,16,03,32.40
2015,06,27,16,04,32.50
2015,06,27,16,05,32.50
2015,06,27,16,06,32.50
2015,06,27,16,07,32.60
2015,06,27,16,08,32.60
2015,06,27,16,09,32.70
2015,06,27,16,10,32.70
2015,06,27,16,11,32.80
2015,06,27,16,12,32.80
2015,06,27,16,13,32.90
2015,06,27,16,14,33.00
2015,06,27,16,15,33.10
2015,06,27,16,16,33.20
2015,06,27,16,17,33.20
2015,06,27,16,18,33.20
2015,06,27,16,19,33.20
2015,06,27,16,20,33.20
2015,06,27,16,21,33.20
2015,06,27,16,22,33.20
2015,06,27,16,23,33.30
2015,06,27,16,24,33.30
2015,06,27,16,25,33.40
2015,06,27,16,26,33.40
2015,06,27,16,27,33.40
2015,06,27,16,28,33.30
2015,06,27,16,29,33.00
2015,06,27,16,30,32.50
2015,06,27,16,31,32.10
2015,06,27,16,32,31.90
2015,06,27,16,33,31.80
2015,06,27,16,34,31.80
2015,06,27,16,35,31.80
2015,06,27,16,36,31.80
2015,06,27,16,37,31.80
2015,06,27,16,38,31.90
2015,06,27,16,39,31.90
2015,06,27,16,40,31.80
2015,06,27,16,41,31.80
2015,06,27,16,42,31.80
2015,06,27,16,43,31.80
2015,06,27,16,44,31.80
2015,06,27,16,45,31.80
2015,06,27,16,46,31.80
2015,06,27,16,47,31.70
2015,06,27,16,48,31.70
2015,06,27,16,49,31.60
2015,06,27,16,50,31.60
2015,06,27,16,51,31.50
2015,06,27,16,52,31.50
2015,06,27,16,53,31.40
2015,06,27,16,54,31.40
2015,06,27,16,55,31.40
2015,06,27,16,56,31.40
2015,06,27,16,57,31.40
2015,06,27,16,58,31.30
2015,06,27,16,59,31.20
2015,06,27,17,00,31.20
2015,06,27,17,01,31.20
2015,06,27,17,02,31.10
2015,06,27,17,03,31.10
2015,06,27,17,04,31.10
2015,06,27,17,05,30.90
2015,06,27,17,06,30.80
2015,06,27,17,07,30.60
2015,06,27,17,08,30.60
2015,06,27,17,09,30.60
2015,06,27,17,10,30.60
2015,06,27,17,11,30.60
2015,06,27,17,12,30.50
2015,06,27,17,13,30.30
2015,06,27,17,14,30.10
2015,06,27,17,15,29.80
2015,06,27,17,16,29.50
2015,06,27,17,17,29.30
2015,06,27,17,18,29.20
2015,06,27,17,19,29.10